Location: Janeiro
(34.9957°N, 76.7652°W)
Time: 08:38:36
(UTC+00:00)

Abrixas rocket - Pass Details

Date: 14 December 2019
Orbit: 354 x 364 km, 48.4° (Epoch: 27 January)

Event Time Altitude Azimuth Distance (km) Brightness Sun altitude
Rises 22:52:18 0° 257° (WSW) 2,187 8.0 -11.2°
Reaches altitude 10° 22:54:31 10° 270° (W) 1,340 6.0 -11.7°
Maximum altitude 22:57:08 26° 330° (NNW) 745 3.6 -12.2°
Enters shadow 22:59:05 14° 23° (NNE) 1,116 4.0 -12.5°
